Location: Calberlah
(52.4230°N, 10.6240°E)
Time: 07:29:09
(UTC+00:00)

Cosmos 1975 - Pass Details

Date: 19 May 2025
Orbit: 487 x 505 km, 82.5° (Epoch: 22 June)

Event Time Altitude Azimuth Distance (km) Brightness Sun altitude
Rises 21:09:37 0° 358° (N) 2,579 7.4 -12.7°
Reaches altitude 10° 21:12:04 10° 13° (NNE) 1,690 6.0 -12.9°
Maximum altitude 21:15:05 23° 68° (ENE) 1,077 4.2 -13.1°
Enters shadow 21:17:03 16° 111° (ESE) 1,369 4.4 -13.3°
